Simultaneous Nadir Overpasses (SNOs) Predictions

Prediction of SNOs between GOES-16 and TERRA Satellite Orbit:

Table of predicted SNOs for the next 14.0 days since TLE Epoch: 4/1/2023
Index Date Time (GOES-16) GOES-16 Lat,Lon TERRA Lat,Lon Distance(km) Time Diff (sec)
1 04/01/2023 14:58:15 0.06, -75.21 -0.56, -72.14 347.83 80
2 04/02/2023 03:18:38 -0.06, -75.20 -0.49, -77.09 215.36 80
3 04/04/2023 02:59:51 -0.06, -75.22 0.36, -73.20 229.05 80
4 04/04/2023 15:20:06 0.06, -75.23 0.68, -78.12 329.11 80
5 04/06/2023 15:06:38 0.06, -75.25 -0.14, -74.22 116.35 80
6 04/07/2023 03:27:01 -0.06, -75.25 -0.88, -79.18 446.13 80
7 04/09/2023 03:10:52 -0.06, -75.28 -0.07, -75.28 1.52 80
8 04/11/2023 02:52:03 -0.05, -75.30 0.77, -71.38 445.73 80
9 04/11/2023 15:12:17 0.05, -75.31 0.25, -76.30 112.28 80
10 04/13/2023 14:58:47 0.04, -75.34 -0.58, -72.40 334.24 80
11 04/14/2023 03:19:09 -0.04, -75.34 -0.47, -77.34 227.75 80
